• en France
  • Liste des pays
  • À 7 jours
  • Température de l'eau
  • Carte satellitaire
  • Carte météo
  • Widgets météo
  • user-avatar
    Se connecter

    Météo par heure à Setif

    Ce jour, 16 Janvier, Mardi

    Heure Température Précipitation Vent Pression Humidité
    00:00 +5°C° 0 mm 1 m/s 676 mmHg 88%
    01:00 +4°C° 0 mm 1 m/s 676 mmHg 88%
    02:00 +4°C° 0 mm 1 m/s 676 mmHg 89%
    03:00 +4°C° 0 mm 1 m/s 676 mmHg 90%
    04:00 +3°C° 0 mm 1 m/s 676 mmHg 89%
    05:00 +3°C° 0 mm 1 m/s 676 mmHg 89%
    06:00 +3°C° 0 mm 1 m/s 676 mmHg 88%
    07:00 +5°C° 0 mm 1 m/s 677 mmHg 81%
    08:00 +5°C° 0 mm 2 m/s 677 mmHg 75%
    09:00 +7°C° 0 mm 2 m/s 678 mmHg 68%
    10:00 +8°C° 0 mm 2 m/s 678 mmHg 61%
    11:00 +10°C° 0 mm 2 m/s 678 mmHg 54%
    12:00 +12°C° 0 mm 2 m/s 679 mmHg 47%
    13:00 +12°C° 0 mm 2 m/s 678 mmHg 45%
    14:00 +13°C° 0 mm 2 m/s 678 mmHg 44%
    15:00 +13°C° 0 mm 2 m/s 678 mmHg 42%
    16:00 +10°C° 0 mm 2 m/s 677 mmHg 49%
    17:00 +10°C° 0 mm 1 m/s 677 mmHg 56%
    18:00 +8°C° 0 mm 1 m/s 676 mmHg 63%
    19:00 +8°C° 0 mm 1 m/s 676 mmHg 62%
    20:00 +6°C° 0 mm 2 m/s 676 mmHg 61%
    21:00 +6°C° 0 mm 2 m/s 676 mmHg 61%
    22:00 +6°C° 0 mm 2 m/s 676 mmHg 60%
    23:00 +6°C° 0 mm 2 m/s 676 mmHg 60%

    Demain, 17 Janvier, Mercredi

    Heure Température Précipitation Vent Pression Humidité
    00:00 +5°C° 0 mm 2 m/s 675 mmHg 60%
    01:00 +5°C° 0 mm 2 m/s 675 mmHg 60%
    02:00 +5°C° 0 mm 2 m/s 674 mmHg 61%
    03:00 +5°C° 0 mm 2 m/s 674 mmHg 62%
    04:00 +4°C° 0 mm 2 m/s 674 mmHg 62%
    05:00 +4°C° 0 mm 2 m/s 674 mmHg 62%
    06:00 +4°C° 0 mm 2 m/s 674 mmHg 63%
    07:00 +6°C° 0 mm 2 m/s 674 mmHg 57%
    08:00 +7°C° 0 mm 2 m/s 675 mmHg 51%
    09:00 +10°C° 0 mm 1 m/s 675 mmHg 45%
    10:00 +10°C° 0 mm 2 m/s 676 mmHg 41%
    11:00 +12°C° 0 mm 3 m/s 676 mmHg 36%
    12:00 +13°C° 0 mm 3 m/s 677 mmHg 31%
    13:00 +13°C° 0 mm 3 m/s 676 mmHg 35%
    14:00 +13°C° 0 mm 3 m/s 676 mmHg 39%
    15:00 +13°C° 0 mm 4 m/s 676 mmHg 43%
    16:00 +11°C° 0 mm 3 m/s 676 mmHg 53%
    17:00 +9°C° 0 mm 3 m/s 676 mmHg 64%
    18:00 +7°C° 0 mm 2 m/s 675 mmHg 74%
    19:00 +7°C° 0 mm 2 m/s 676 mmHg 79%
    20:00 +6°C° 0 mm 2 m/s 676 mmHg 84%
    21:00 +6°C° 0 mm 1 m/s 676 mmHg 89%
    22:00 +6°C° 0 mm 1 m/s 676 mmHg 90%
    23:00 +5°C° 0 mm 1 m/s 676 mmHg 91%

    Après-demain, 18 Janvier, Jeudi

    Heure Température Précipitation Vent Pression Humidité
    00:00 +5°C° 0 mm 1 m/s 676 mmHg 92%
    01:00 +5°C° 0 mm 1 m/s 676 mmHg 92%
    02:00 +4°C° 0 mm 1 m/s 676 mmHg 92%
    03:00 +4°C° 0 mm 1 m/s 676 mmHg 92%
    04:00 +4°C° 0 mm 1 m/s 676 mmHg 91%
    05:00 +4°C° 0 mm 1 m/s 676 mmHg 90%
    06:00 +3°C° 0 mm 1 m/s 676 mmHg 90%
    07:00 +5°C° 0 mm 1 m/s 676 mmHg 82%
    08:00 +6°C° 0 mm 2 m/s 677 mmHg 75%
    09:00 +8°C° 0 mm 2 m/s 678 mmHg 67%
    10:00 +9°C° 0 mm 3 m/s 678 mmHg 60%
    11:00 +10°C° 0 mm 4 m/s 678 mmHg 54%
    12:00 +12°C° 0 mm 4 m/s 677 mmHg 48%
    13:00 +12°C° 0 mm 4 m/s 677 mmHg 49%
    14:00 +12°C° 0 mm 4 m/s 676 mmHg 49%
    15:00 +12°C° 0 mm 4 m/s 676 mmHg 50%
    16:00 +10°C° 0 mm 3 m/s 675 mmHg 57%
    17:00 +9°C° 0 mm 3 m/s 675 mmHg 64%
    18:00 +7°C° 0 mm 3 m/s 675 mmHg 71%
    19:00 +7°C° 0 mm 3 m/s 675 mmHg 74%
    20:00 +5°C° 0 mm 3 m/s 674 mmHg 77%
    21:00 +4°C° 0 mm 3 m/s 674 mmHg 81%
    22:00 +4°C° 0 mm 3 m/s 674 mmHg 83%
    23:00 +4°C° 0 mm 3 m/s 673 mmHg 84%

    19 Janvier, Vendredi

    Heure Température Précipitation Vent Pression Humidité
    00:00 +3°C° 0 mm 3 m/s 673 mmHg 86%
    01:00 +3°C° 0 mm 3 m/s 672 mmHg 87%
    02:00 +3°C° 0 mm 3 m/s 672 mmHg 87%
    03:00 +4°C° 0 mm 2 m/s 671 mmHg 87%
    04:00 +3°C° 0 mm 2 m/s 671 mmHg 86%
    05:00 +3°C° 0 mm 2 m/s 671 mmHg 85%
    06:00 +3°C° 0 mm 2 m/s 670 mmHg 85%
    07:00 +4°C° 0 mm 2 m/s 671 mmHg 77%
    08:00 +6°C° 0 mm 2 m/s 671 mmHg 70%
    09:00 +7°C° 0 mm 2 m/s 671 mmHg 62%
    10:00 +9°C° 0 mm 2 m/s 671 mmHg 55%
    11:00 +10°C° 0 mm 2 m/s 671 mmHg 48%
    12:00 +13°C° 0 mm 2 m/s 671 mmHg 41%
    13:00 +13°C° 0 mm 2 m/s 670 mmHg 41%
    14:00 +13°C° 0 mm 2 m/s 670 mmHg 41%
    15:00 +13°C° 0 mm 2 m/s 670 mmHg 41%
    16:00 +12°C° 0 mm 2 m/s 669 mmHg 49%
    17:00 +10°C° 0 mm 2 m/s 669 mmHg 58%
    18:00 +8°C° 0 mm 2 m/s 668 mmHg 66%
    19:00 +8°C° 0 mm 2 m/s 669 mmHg 71%
    20:00 +7°C° 0 mm 2 m/s 669 mmHg 76%
    21:00 +7°C° 0 mm 2 m/s 669 mmHg 81%
    22:00 +5°C° 0 mm 3 m/s 669 mmHg 84%
    23:00 +5°C° 0 mm 3 m/s 669 mmHg 87%

    20 Janvier, Samedi

    Heure Température Précipitation Vent Pression Humidité
    00:00 +4°C° 0 mm 3 m/s 669 mmHg 90%
    01:00 +4°C° 0 mm 3 m/s 669 mmHg 89%
    02:00 +4°C° 0 mm 3 m/s 669 mmHg 88%
    03:00 +4°C° 0 mm 4 m/s 669 mmHg 88%
    04:00 +4°C° 0 mm 3 m/s 669 mmHg 89%
    05:00 +3°C° 0 mm 3 m/s 669 mmHg 90%
    06:00 +2°C° 0 mm 3 m/s 669 mmHg 91%
    07:00 +3°C° 0 mm 4 m/s 670 mmHg 84%
    08:00 +3°C° 0 mm 5 m/s 670 mmHg 77%
    09:00 +4°C° 0 mm 6 m/s 671 mmHg 70%
    10:00 +4°C° 0,1 mm 7 m/s 671 mmHg 69%
    11:00 +4°C° 0,1 mm 7 m/s 670 mmHg 68%
    12:00 +4°C° 0,1 mm 7 m/s 670 mmHg 67%
    13:00 +4°C° 0,2 mm 8 m/s 670 mmHg 68%
    14:00 +3°C° 0,2 mm 9 m/s 670 mmHg 69%
    15:00 +3°C° 0,2 mm 9 m/s 670 mmHg 70%
    16:00 +2°C° 0,2 mm 9 m/s 670 mmHg 74%
    17:00 +2°C° 0,2 mm 9 m/s 671 mmHg 77%
    18:00 +1°C° 0,2 mm 9 m/s 671 mmHg 80%
    19:00 +2°C° 0,1 mm 7 m/s 671 mmHg 82%
    20:00 +2°C° 0,1 mm 6 m/s 672 mmHg 83%
    21:00 +1°C° 0,1 mm 5 m/s 672 mmHg 85%
    22:00 +1°C° 0,1 mm 5 m/s 672 mmHg 86%
    23:00 +1°C° 0,1 mm 4 m/s 671 mmHg 87%

    21 Janvier, Dimanche

    Heure Température Précipitation Vent Pression Humidité
    00:00 +1°C° 0,1 mm 4 m/s 671 mmHg 87%
    01:00 +1°C° 0 mm 4 m/s 671 mmHg 87%
    02:00 0°C° 0 mm 4 m/s 671 mmHg 86%
    03:00 0°C° 0 mm 4 m/s 670 mmHg 85%
    04:00 +1°C° 0 mm 3 m/s 670 mmHg 86%
    05:00 +2°C° 0 mm 3 m/s 670 mmHg 86%
    06:00 +2°C° 0 mm 3 m/s 670 mmHg 87%
    07:00 +3°C° 0,1 mm 4 m/s 671 mmHg 84%
    08:00 +3°C° 0,1 mm 5 m/s 671 mmHg 81%
    09:00 +5°C° 0,1 mm 5 m/s 671 mmHg 79%
    10:00 +5°C° 0,1 mm 6 m/s 672 mmHg 78%
    11:00 +5°C° 0,1 mm 6 m/s 672 mmHg 77%
    12:00 +6°C° 0,1 mm 7 m/s 672 mmHg 77%
    13:00 +6°C° 0,1 mm 7 m/s 672 mmHg 77%
    14:00 +6°C° 0,1 mm 7 m/s 672 mmHg 76%
    15:00 +8°C° 0,1 mm 7 m/s 672 mmHg 76%
    16:00 +7°C° 0,1 mm 6 m/s 672 mmHg 81%
    17:00 +6°C° 0,1 mm 5 m/s 672 mmHg 86%
    18:00 +5°C° 0,1 mm 3 m/s 673 mmHg 91%
    19:00 +5°C° 0,1 mm 3 m/s 673 mmHg 92%
    20:00 +5°C° 0,1 mm 3 m/s 673 mmHg 92%
    21:00 +5°C° 0,1 mm 3 m/s 674 mmHg 93%
    22:00 +5°C° 0,1 mm 3 m/s 674 mmHg 93%
    23:00 +6°C° 0,1 mm 2 m/s 674 mmHg 93%
    Voir plus